Location: Gull Harbor
(47.1000°N, 122.9000°W)
Time: 09:09:20
(UTC-08:00)

ISS - Visible Passes

Search period start: 14 December 2017 00:00
Search period end: 24 December 2017 00:00
Orbit: 403 x 406 km, 51.6° (Epoch: 15 December)

Date Brightness Start Highest point End Pass type
(mag) Time Alt. Az. Time Alt. Az. Time Alt. Az.
14 Dec -3.4 17:28:37 10° WNW 17:31:54 65° SSW 17:35:09 10° SE visible
14 Dec -0.7 19:06:43 10° WSW 19:07:49 11° SW 19:08:47 10° SSW visible
15 Dec -1.1 18:13:24 10° W 18:15:50 19° SW 18:18:16 10° S visible
16 Dec -1.9 17:20:46 10° WNW 17:23:46 32° SW 17:26:44 10° SSE visible
18 Dec -0.6 17:13:19 10° W 17:15:27 16° SW 17:17:35 10° S visible
